[[{"header":{"parameterUnit":"m.s-1","parameterCategory":1,"la1":30.2991,"la2":30.254,"lo1":-89.0895,"lo2":-89.0444,"dx":0.0017,"dy":0.0017,"nx":28,"ny":28,"refTime":"2022-12-07T03:00:00:Z","depth":0,"parameterNumber":2,"parameterNumberName":"U-component_of_WINDS"},"data":[0,0,0,0,0,0,0,0,0,0,0,0,0,0,0,0,0,0,0,0,0,0,0,0,0,0,0,0,0,0,0,0,0,0,0,0,0,0,0,0,0,0,0,0,0,0,0,0,0,0,0,0,0,0,0,0,0,0,-0.5543,-0.5543,0,-0.5558,-0.5558,-0.5558,-0.5528,-0.5527,-0.5526,-0.5525,-0.5544,-0.5546,-0.5547,0,0,0,0,0,0,0,0,0,0,0,0,0,-0.5494,-0.5495,-0.5543,-0.5543,-0.5543,-0.5557,-0.5558,-0.5558,-0.5528,-0.5527,-0.5526,-0.5525,-0.5544,-0.5545,-0.5547,0,0,0,0,0,0,0,0,0,0,0,0,0,-0.5513,-0.5495,-0.5543,-0.553,-0.5529,-0.5557,-0.5558,-0.5558,-0.5529,-0.5527,-0.5526,-0.5524,-0.5543,-0.5545,-0.5547,-0.559,0,0,-0.5554,-0.5555,0,0,0,0,0,0,0,0,-0.5512,-0.5514,-0.5532,-0.5531,-0.553,-0.5539,-0.5547,-0.5569,-0.5529,-0.5529,-0.5525,-0.5524,-0.5544,-0.5546,-0.5552,-0.5591,-0.5591,-0.5554,-0.5555,-0.5556,-0.5557,0,0,0,0,0,0,0,-0.551,-0.5514,-0.5549,-0.5532,-0.5531,-0.5525,-0.5526,-0.5551,-0.5545,-0.5529,-0.5527,-0.5529,-0.5543,-0.555,-0.5552,-0.5592,-0.5554,-0.5556,-0.5557,-0.5558,-0.5668,-0.5669,0,0,0,0,0,0,-0.551,-0.5513,-0.5548,-0.5549,-0.5517,-0.5527,-0.5528,-0.5538,-0.5544,-0.5544,-0.553,-0.5527,-0.5547,-0.555,-0.5553,-0.5604,-0.5556,-0.5558,-0.5559,-0.5666,-0.5668,-0.567,0,0,0,0,0,0,-0.5509,-0.5513,-0.5548,-0.553,-0.5534,-0.553,-0.5541,-0.5539,-0.5546,-0.5545,-0.5544,-0.5538,-0.5546,-0.555,-0.5581,-0.5604,-0.5559,-0.5561,-0.5664,-0.5667,-0.5669,-0.5706,0,0,0,0,0,0,-0.5508,-0.5513,-0.5528,-0.5531,-0.5535,-0.5574,-0.5542,-0.554,-0.5549,-0.5546,-0.5552,-0.5552,-0.5545,-0.5578,-0.5583,-0.5606,-0.5563,-0.5662,-0.5665,-0.5668,-0.5702,-0.5709,-0.5715,0,0,0,0,0,-0.5506,-0.5538,-0.5529,-0.5533,-0.5554,-0.5575,-0.5578,-0.5569,-0.5551,-0.5567,-0.5567,-0.5552,-0.5601,-0.5581,-0.5587,-0.5611,-0.5661,-0.5664,-0.5668,-0.57,-0.5708,-0.5715,0,0,0,0,0,0,-0.5539,-0.5538,-0.5528,-0.5562,-0.5569,-0.557,-0.559,-0.5578,-0.5591,-0.5587,-0.5576,-0.5578,-0.5612,-0.5615,-0.5593,-0.5653,-0.5628,-0.5633,-0.565,-0.5658,-0.5664,-0.5662,-0.5564,0,0,0,0,0,-0.555,-0.5567,-0.5566,-0.5596,-0.56,-0.5594,-0.5603,-0.5596,-0.5603,-0.5606,-0.5608,-0.5617,-0.5635,-0.5646,-0.5662,-0.5703,-0.5705,-0.5723,-0.5729,-0.5734,-0.5738,-0.5761,-0.577,-0.5682,-0.5682,-0.5682,0,0,-0.5574,-0.5575,-0.5586,-0.5602,-0.5607,-0.5626,-0.5597,-0.5618,-0.5632,-0.561,-0.5639,-0.5641,-0.5651,-0.5687,-0.5703,-0.569,-0.5763,-0.5739,-0.5743,-0.5744,-0.5766,-0.5774,-0.5782,-0.5685,-0.5684,-0.5684,0,0,-0.5625,-0.5628,-0.5653,-0.5659,-0.5666,-0.5662,-0.5669,-0.5672,-0.5673,-0.5702,-0.5686,-0.5704,-0.5734,-0.5741,-0.5749,-0.5806,-0.5794,-0.5812,-0.5844,-0.5867,-0.5874,-0.588,-0.5901,-0.5909,-0.5816,-0.5817,-0.5817,0,-0.5654,-0.568,-0.5668,-0.569,-0.5699,-0.5679,-0.5706,-0.5712,-0.5725,-0.5732,-0.5717,-0.5755,-0.576,-0.5799,-0.5813,-0.5819,-0.5828,-0.5811,-0.5874,-0.588,-0.5885,-0.5905,-0.5913,-0.5819,-0.5819,-0.5818,-0.5818,0,-0.5715,-0.5733,-0.5754,-0.5765,-0.5776,-0.58,-0.5794,-0.5807,-0.5799,-0.5798,-0.5829,-0.5834,-0.5851,-0.586,-0.5853,-0.5898,-0.589,-0.5875,-0.5849,-0.5896,-0.5915,-0.5922,-0.5822,-0.5821,-0.582,-0.582,0,0,-0.5786,-0.5792,-0.58,-0.5806,-0.5813,-0.5828,-0.5853,-0.5869,-0.588,-0.589,-0.5911,-0.5938,-0.5924,-0.5934,-0.5927,-0.5947,-0.5993,-0.593,-0.593,-0.5942,-0.6045,-0.6057,-0.6066,-0.5985,-0.5987,-0.5988,-0.6045,0,-0.5838,-0.5879,-0.587,-0.5911,-0.5929,-0.5911,-0.5933,-0.5941,-0.5941,-0.5958,-0.5958,-0.5977,-0.5957,-0.5963,-0.5982,-0.5984,-0.6014,-0.5979,-0.6006,-0.6007,-0.6004,-0.6075,-0.6087,-0.614,-0.6052,-0.6053,-0.6054,0,-0.5903,-0.5915,-0.5957,-0.5963,-0.597,-0.5989,-0.6004,-0.602,-0.6029,-0.6028,-0.6039,-0.603,-0.6056,-0.6031,-0.6068,-0.6045,-0.6056,-0.6058,-0.606,-0.6062,-0.6033,-0.608,-0.6157,-0.6165,-0.6065,-0.6064,-0.6064,0,-0.5952,-0.5979,-0.6007,-0.6013,-0.602,-0.6034,-0.6038,-0.6046,-0.6057,-0.6071,-0.6078,-0.6095,-0.6105,-0.6119,-0.6115,-0.6097,-0.6154,-0.6128,-0.6155,-0.6155,-0.6168,-0.6167,-0.6248,-0.6175,-0.6175,-0.6174,-0.6174,0,-0.6011,-0.6037,-0.6029,-0.6047,-0.6077,-0.6068,-0.6099,-0.6101,-0.6109,-0.6128,-0.6115,-0.6133,-0.6127,-0.6146,-0.6144,-0.6176,-0.618,-0.6181,-0.618,-0.6182,-0.6182,-0.6189,-0.6185,-0.6177,-0.6176,-0.6176,-0.6175,0,-0.607,-0.6065,-0.6096,-0.61,-0.6102,-0.6124,-0.6129,-0.6146,-0.6146,-0.6171,-0.6176,-0.6176,-0.6198,-0.6196,-0.622,-0.6219,-0.6259,-0.6254,-0.6255,-0.6254,-0.6282,-0.6279,-0.637,-0.6382,-0.6301,-0.6302,-0.6302,0,-0.6107,-0.6127,-0.6134,-0.6145,-0.615,-0.6168,-0.6179,-0.6172,-0.6184,-0.6198,-0.6214,-0.6235,-0.6251,-0.6287,-0.629,-0.631,-0.6305,-0.6336,-0.6308,-0.631,-0.6306,-0.6305,-0.6307,-0.6341,-0.6342,-0.6343,-0.6343,0,-0.6174,-0.6172,-0.6187,-0.6202,-0.6215,-0.6227,-0.6238,-0.6249,-0.6243,-0.6258,-0.6279,-0.6292,-0.6317,-0.6339,-0.6357,-0.6364,-0.6353,-0.6352,-0.636,-0.6362,-0.6362,-0.6363,-0.627,-0.635,-0.6349,-0.6349,-0.6348,-0.6348,-0.6224,-0.6241,-0.6249,-0.6267,-0.6274,-0.6285,-0.6302,-0.6304,-0.6321,-0.634,-0.6336,-0.6361,-0.6372,-0.6396,-0.6404,-0.6425,-0.6414,-0.6425,-0.6428,-0.643,-0.6434,-0.6359,-0.6429,-0.6429,-0.6428,-0.6428,-0.6428,0,-0.6291,-0.6295,-0.6312,-0.6327,-0.6342,-0.633,-0.6342,-0.6355,-0.6377,-0.6388,-0.6404,-0.643,-0.6451,-0.6456,-0.6477,-0.6493,-0.6489,-0.6498,-0.6497,-0.6499,-0.6442,-0.6434,-0.6501,-0.6501,-0.6501,-0.6501,-0.6501,-0.6501,-0.6327,-0.6356,-0.6354,-0.6388,-0.6393,-0.6416,-0.6424,-0.6434,-0.6443,-0.6472,-0.6489,-0.6492,-0.6501,-0.6523,-0.6542,-0.6544,-0.6552,-0.6564,-0.6564,-0.651,-0.6503,-0.6496,-0.6488,-0.6566,-0.6566,-0.6619,-0.6619,-0.662]},{"header":{"parameterUnit":"m.s-1","parameterCategory":1,"la1":30.2991,"la2":30.254,"lo1":-89.0895,"lo2":-89.0444,"dx":0.0017,"dy":0.0017,"nx":28,"ny":28,"refTime":"2022-12-07T03:00:00:Z","depth":0,"parameterNumber":3,"parameterNumberName":"V-component_of_WINDS"},"data":[0,0,0,0,0,0,0,0,0,0,0,0,0,0,0,0,0,0,0,0,0,0,0,0,0,0,0,0,0,0,0,0,0,0,0,0,0,0,0,0,0,0,0,0,0,0,0,0,0,0,0,0,0,0,0,0,0,0,0.2449,0.2449,0,0.2406,0.2405,0.2405,0.2409,0.241,0.2411,0.2411,0.2364,0.2362,0.236,0,0,0,0,0,0,0,0,0,0,0,0,0,0.2534,0.2532,0.2449,0.2449,0.2448,0.2406,0.2405,0.2405,0.2409,0.241,0.2411,0.2412,0.2365,0.2362,0.236,0,0,0,0,0,0,0,0,0,0,0,0,0,0.2494,0.2532,0.2449,0.2445,0.2445,0.2406,0.2405,0.2404,0.2409,0.241,0.2411,0.2412,0.2365,0.2363,0.236,0.2322,0,0,0.2351,0.235,0,0,0,0,0,0,0,0,0.2497,0.2491,0.2446,0.2446,0.2445,0.2414,0.2418,0.2377,0.2409,0.2422,0.2411,0.2412,0.238,0.2376,0.2365,0.2319,0.2317,0.2351,0.2349,0.2348,0.2347,0,0,0,0,0,0,0,0.2499,0.2493,0.2432,0.2446,0.2445,0.2445,0.2441,0.241,0.2396,0.2421,0.2421,0.2416,0.2379,0.2368,0.2364,0.2317,0.2351,0.2348,0.2347,0.2346,0.2237,0.2236,0,0,0,0,0,0,0.2503,0.2495,0.2433,0.2431,0.2474,0.2443,0.2438,0.2423,0.2396,0.2393,0.2416,0.2417,0.2372,0.2367,0.2362,0.2316,0.2348,0.2345,0.2344,0.2238,0.2237,0.2236,0,0,0,0,0,0,0.2505,0.2498,0.2435,0.2463,0.2455,0.244,0.2423,0.2421,0.241,0.2392,0.2389,0.2407,0.2373,0.2367,0.2332,0.2315,0.2344,0.2341,0.224,0.2238,0.2236,0.2223,0,0,0,0,0,0,0.2508,0.2498,0.2484,0.2463,0.2454,0.2406,0.2422,0.242,0.2405,0.2407,0.2383,0.238,0.2373,0.2336,0.2329,0.2311,0.2339,0.2241,0.2239,0.2237,0.2225,0.2221,0.2218,0,0,0,0,0,0.2511,0.2482,0.2484,0.2476,0.2436,0.2405,0.24,0.2394,0.2404,0.2389,0.2378,0.238,0.2318,0.2333,0.2325,0.2306,0.2242,0.224,0.2237,0.2227,0.2222,0.2218,0,0,0,0,0,0,0.2501,0.2479,0.2481,0.2444,0.2426,0.2406,0.2387,0.2389,0.2367,0.2369,0.2361,0.2356,0.2321,0.231,0.2327,0.2267,0.2281,0.2277,0.2276,0.2271,0.2268,0.2271,0.2337,0,0,0,0,0,0.2494,0.2472,0.2454,0.2423,0.2414,0.2402,0.2388,0.2385,0.2366,0.2359,0.2345,0.2325,0.2301,0.2286,0.2262,0.2223,0.2218,0.2206,0.2202,0.22,0.2196,0.2174,0.2169,0.2227,0.2227,0.2227,0,0,0.2481,0.2466,0.2452,0.2421,0.2407,0.2383,0.2396,0.237,0.2352,0.2355,0.2322,0.231,0.2288,0.2251,0.2234,0.2241,0.2179,0.2196,0.2194,0.2192,0.2171,0.2166,0.2161,0.2225,0.2226,0.2226,0,0,0.2444,0.2431,0.2404,0.239,0.2369,0.2361,0.2355,0.2334,0.2327,0.2294,0.2295,0.2273,0.2232,0.2216,0.2203,0.216,0.2162,0.2153,0.2134,0.2113,0.2108,0.2104,0.2089,0.2084,0.2149,0.2149,0.2149,0,0.243,0.2395,0.239,0.2364,0.235,0.2352,0.2325,0.2311,0.2283,0.2273,0.2281,0.2229,0.2214,0.2174,0.2164,0.2153,0.2145,0.2156,0.211,0.2105,0.2102,0.2087,0.2081,0.2148,0.2148,0.2148,0.2149,0,0.2379,0.2355,0.2335,0.2309,0.2293,0.2266,0.2257,0.2241,0.2239,0.223,0.2196,0.2178,0.2152,0.2142,0.2139,0.2101,0.2106,0.2111,0.2126,0.2095,0.2082,0.2076,0.2147,0.2147,0.2147,0.2148,0,0,0.2335,0.2307,0.23,0.2288,0.2265,0.2246,0.2219,0.2194,0.218,0.2161,0.2138,0.2103,0.2109,0.2093,0.2089,0.2071,0.2038,0.2079,0.2078,0.2072,0.1995,0.1991,0.1984,0.2039,0.2038,0.2037,0.1997,0,0.2296,0.225,0.2245,0.2203,0.2181,0.2182,0.2159,0.2142,0.2133,0.2111,0.2101,0.2076,0.2086,0.2076,0.2058,0.2046,0.2023,0.2049,0.2018,0.2017,0.2024,0.1977,0.1973,0.1935,0.1991,0.199,0.199,0,0.2245,0.2226,0.2182,0.2163,0.2153,0.2132,0.2109,0.2089,0.2069,0.2063,0.2047,0.2045,0.2016,0.2032,0.1992,0.201,0.1997,0.1989,0.1987,0.1984,0.2002,0.1973,0.1923,0.1918,0.1981,0.1982,0.1983,0,0.2218,0.218,0.215,0.214,0.2116,0.2101,0.209,0.2072,0.2057,0.2036,0.2026,0.2002,0.1989,0.197,0.1961,0.1973,0.1922,0.1936,0.1916,0.1917,0.1906,0.1907,0.1853,0.1897,0.1897,0.1897,0.1897,0,0.2176,0.215,0.2137,0.2119,0.2089,0.2082,0.2053,0.2042,0.2026,0.2004,0.2003,0.1983,0.1973,0.195,0.1943,0.1912,0.1906,0.19,0.1899,0.19,0.1901,0.1892,0.1894,0.1895,0.1896,0.1896,0.1896,0,0.2141,0.2132,0.2099,0.2079,0.2073,0.2052,0.2035,0.2016,0.2007,0.198,0.1973,0.1959,0.1933,0.1922,0.189,0.1885,0.1849,0.1849,0.1856,0.1855,0.1836,0.1838,0.1775,0.1766,0.1815,0.1815,0.1815,0,0.2115,0.2095,0.2073,0.2059,0.2048,0.2025,0.2011,0.2003,0.1987,0.1963,0.1948,0.1922,0.1901,0.1859,0.1845,0.182,0.182,0.18,0.1817,0.1819,0.182,0.1822,0.182,0.1797,0.1796,0.1796,0.1796,0,0.207,0.2066,0.2045,0.2023,0.2005,0.1987,0.1969,0.1957,0.1947,0.1929,0.1903,0.1887,0.1855,0.1829,0.1803,0.1791,0.1791,0.179,0.1785,0.1786,0.1791,0.1789,0.1848,0.1792,0.1792,0.1793,0.1793,0.1793,0.2039,0.2021,0.2003,0.1979,0.1965,0.1949,0.193,0.1919,0.1898,0.1871,0.1868,0.184,0.182,0.1786,0.1773,0.175,0.1756,0.1747,0.1745,0.1743,0.1742,0.1795,0.1746,0.1746,0.1746,0.1746,0.1746,0,0.1994,0.1982,0.1961,0.1936,0.1918,0.192,0.19,0.1885,0.186,0.1842,0.1822,0.1792,0.1767,0.1751,0.1726,0.1711,0.171,0.1704,0.1705,0.1703,0.1738,0.1746,0.1705,0.1705,0.1705,0.1705,0.1705,0.1705,0.1968,0.1938,0.1933,0.1895,0.1884,0.1857,0.1846,0.183,0.1816,0.1782,0.1762,0.1752,0.1735,0.1708,0.1685,0.1681,0.1672,0.1666,0.1662,0.1696,0.17,0.1704,0.1711,0.1664,0.1664,0.1628,0.1628,0.1627]}]]